RH
31 29 23 20 20 20 18 17 17 19 20 20 20 19 18 17 16 15 14 14 13 13 13 13 13 13 13 12 12 12 11 11 12 12 12 12 12 12 12 12 12 11 11 10 10 9 9 8 8 7 7 7
31 29 24 20 19 19 19 17 17 19 20 20 20 19 18 17 16 16 15 14 14 14 14 14 14 14 13 13 12 12 12 12 12 12 12 12 12 12 11 11 11 11 10 10 10 9 9 8 8 7 7 7
32 29 24 20 20 19 20 18 16 18 20 21 20 20 19 18 17 16 16 15 15 15 15 15 15 15 14 14 13 12 12 11 11 11 11 11 11 11 11 10 10 10 10 10 9 9 9 8 8 8 7 7
33 31 25 21 20 20 20 19 17 17 20 22 21 21 19 18 18 17 17 17 16 16 16 15 15 15 15 14 13 13 12 11 11 11 11 11 10 10 10 10 10 10 10 9 9 9 9 9 8 8 8 8
33 31 26 22 21 21 20 20 19 18 19 22 22 22 21 20 19 18 18 17 17 17 16 15 15 15 14 14 13 13 12 12 11 11 11 11 11 10 10 10 10 10 10 9 9 9 9 9 8 8 8 8
33 31 27 23 22 21 21 22 21 19 19 20 22 22 21 21 20 19 18 18 17 17 16 16 15 15 15 14 14 13 13 12 11 11 11 11 11 11 10 10 10 10 10 9 9 9 9 9 8 8 8 8
33 32 27 23 22 22 22 23 23 22 20 19 20 22 22 21 20 20 19 18 18 17 17 16 16 15 15 14 14 13 13 12 12 12 11 11 11 11 11 11 11 11 10 10 9 9 9 9 9 9 8 8
33 31 26 23 23 23 23 24 24 23 22 20 18 19 20 20 20 20 20 19 18 18 17 17 16 15 14 14 14 13 13 13 12 12 12 12 12 12 12 12 12 11 11 11 10 10 10 9 9 9 9 9
33 30 26 24 23 23 24 24 24 24 23 21 18 17 17 18 18 19 19 19 18 17 17 16 15 14 14 14 14 14 14 13 13 13 13 13 13 13 13 13 13 13 12 12 11 11 11 10 10 10 9 9
31 29 26 25 24 24 24 24 24 24 24 22 19 17 16 16 16 17 17 17 16 16 15 15 15 14 15 15 15 15 15 15 15 15 15 14 15 15 15 14 14 14 13 13 13 13 12 12 12 11 11 10
31 29 27 25 24 24 24 24 24 24 23 22 20 19 17 16 16 16 16 15 15 15 15 15 15 15 16 16 17 17 17 17 17 17 17 17 17 17 16 16 16 15 15 15 14 14 14 13 13 13 12 12
32 29 28 26 25 25 25 25 24 24 23 23 22 21 19 18 18 17 17 16 16 15 16 16 16 17 18 19 19 19 19 19 19 19 19 19 19 18 18 18 17 17 17 16 16 15 15 14 14 14 14 13
32 31 29 27 26 26 25 24 24 23 23 23 22 22 21 20 19 19 18 18 17 17 18 18 19 20 20 21 21 20 20 20 20 20 21 20 21 20 20 20 19 19 18 18 17 16 16 16 15 15 15 15
33 32 30 28 27 26 25 24 24 24 24 24 23 22 22 22 21 20 20 20 20 21 21 22 23 23 23 22 22 22 21 22 22 22 22 22 22 22 21 21 20 20 19 18 18 18 17 17 17 16 16 17
35 32 29 28 27 26 25 24 24 24 24 24 23 23 24 23 23 23 23 23 24 24 25 25 25 25 25 24 24 24 23 24 24 24 24 23 23 23 23 22 22 22 21 20 20 19 19 18 19 18 19 19
36 33 29 28 27 26 26 25 25 25 24 24 25 25 25 25 25 26 26 26 26 26 26 26 26 26 26 26 26 26 26 27 27 27 26 26 25 25 25 24 24 23 23 22 22 21 21 20 21 21 21 22
37 35 31 28 27 27 26 26 25 25 25 25 26 26 27 27 28 28 28 28 28 28 28 28 28 28 28 28 28 29 29 30 30 30 29 28 28 28 27 27 26 26 25 25 24 24 23 23 22 23 23 25
37 36 34 30 27 26 26 26 26 26 26 26 27 27 28 28 29 29 29 30 30 30 30 30 30 30 30 29 29 29 30 30 31 31 32 31 31 31 31 30 30 29 29 28 28 27 26 25 25 25 26 28
36 37 36 34 31 28 27 26 27 27 27 27 28 28 29 29 30 30 31 31 32 32 32 32 32 32 31 31 30 30 30 30 30 31 32 33 33 34 33 33 33 32 32 31 31 30 29 28 28 27 29 31
36 37 37 37 35 33 30 29 28 28 28 28 29 29 30 30 31 31 32 33 33 33 34 34 34 33 33 32 32 31 31 31 31 32 33 34 35 34 34 35 35 35 35 34 34 34 32 31 30 30 31 33
36 37 38 38 38 36 35 34 33 32 32 32 31 31 31 31 31 32 33 34 34 35 35 35 35 34 34 33 33 33 33 32 33 33 34 35 36 37 37 37 37 38 38 37 36 36 36 34 33 33 33 35
34 35 36 37 37 37 37 37 36 36 36 36 35 35 34 33 32 33 33 33 34 34 34 35 35 34 35 35 34 34 34 35 35 36 36 37 38 40 40 39 40 40 40 39 38 38 37 37 36 36 36 36
32 33 33 34 35 35 35 36 37 37 38 39 39 39 39 38 37 36 36 36 36 36 36 35 36 36 36 36 36 36 37 38 39 39 40 40 41 42 43 43 43 43 43 41 40 40 39 39 39 39 40 40
33 33 34 34 34 34 35 36 37 38 39 40 41 42 43 42 42 42 41 41 40 40 39 38 38 38 38 38 38 38 38 39 41 42 43 43 44 44 45 46 47 46 46 45 43 42 41 41 41 42 43 44
34 34 35 35 35 36 36 37 38 40 40 42 43 43 44 45 45 45 45 46 46 45 44 43 43 42 42 42 42 41 42 42 43 45 46 46 46 47 48 48 50 50 50 49 48 46 45 45 45 45 45 47
34 35 35 36 36 37 38 39 40 41 43 43 44 45 45 46 47 48 49 50 51 51 51 51 50 49 49 48 48 47 47 47 48 49 50 50 50 51 52 52 53 55 56 56 55 54 52 49 48 48 49 50
36 37 38 39 39 40 41 42 43 43 44 44 45 46 46 47 48 50 52 53 54 55 55 56 56 55 55 55 54 54 54 54 55 57 57 59 59 59 59 59 59 61 62 63 63 62 59 54 52 51 51 54
41 41 42 43 43 44 46 46 47 47 47 47 47 47 48 48 48 50 53 54 55 56 57 59 59 60 60 60 61 60 60 61 61 63 64 65 66 67 66 66 67 68 70 70 72 73 68 64 63 58 56 58
45 45 46 46 47 47 49 49 49 50 51 52 52 51 51 51 50 51 53 54 55 56 58 59 60 61 62 63 64 65 65 65 66 67 69 70 71 72 72 72 72 73 76 77 78 81 80 76 73 67 65 67
47 47 47 48 48 49 51 52 52 52 53 54 55 55 54 54 53 54 55 56 57 58 59 60 61 62 63 64 65 66 67 68 69 70 72 74 75 76 78 78 77 77 80 82 82 84 87 87 84 80 78 77
49 50 51 51 52 53 54 55 56 56 56 56 57 57 58 58 58 58 59 59 60 60 61 62 63 64 64 65 66 67 68 69 71 73 75 77 79 80 81 82 82 82 83 85 85 86 88 89 91 91 89 87